Wind_Speed
16 15 18 20 18 16 17 19 21 24 26 27 27 23 22 24 28 30 28 29 30 31 35 38 39 38 37 36 35 34 34 34 35 35 36 35 39 39 37 36 36 35 35 34 34 31 32 32 32
19 19 20 20 20 20 19 21 22 26 27 27 26 22 23 25 28 31 32 32 29 31 36 39 40 38 36 38 38 37 36 35 34 32 31 32 32 36 38 37 36 36 36 35 36 35 33 32 33
22 23 20 20 24 22 24 26 25 30 32 31 24 21 23 25 27 29 33 34 30 33 36 38 41 38 38 40 40 39 37 34 30 29 30 29 30 33 34 35 35 35 35 36 36 38 36 34 35
25 26 25 25 25 24 27 30 31 32 32 34 30 26 27 28 26 26 29 31 30 32 35 39 40 38 39 39 38 37 33 32 32 31 29 31 29 29 29 31 33 34 35 35 36 37 37 35 36
29 28 28 26 25 27 27 30 32 31 34 36 34 32 31 26 27 24 25 27 28 32 33 36 37 38 40 38 36 35 36 38 36 35 35 36 33 31 31 29 30 30 32 33 35 35 37 36 36
34 34 31 27 27 27 25 29 32 35 36 34 30 32 26 26 29 25 26 30 28 30 33 37 37 39 37 37 37 37 36 37 38 39 39 38 38 36 35 35 34 35 34 33 33 34 36 37 38
37 36 32 31 29 28 27 33 38 42 39 37 33 34 32 30 31 30 28 29 27 28 34 36 38 38 37 38 39 39 39 38 39 40 41 38 37 36 35 36 34 34 35 35 34 34 35 36 38
38 42 35 31 28 30 32 39 45 42 40 40 35 35 35 35 33 31 29 29 26 30 33 36 38 36 39 39 39 39 39 38 41 41 38 38 36 35 35 34 33 32 33 34 33 30 28 32 34
45 49 43 38 36 35 35 38 37 38 41 39 34 37 39 39 39 42 35 34 32 30 31 34 36 37 39 40 38 38 38 40 38 37 37 35 33 32 30 30 30 29 29 30 29 29 30 32 36
47 50 44 37 39 41 40 42 43 39 43 37 36 37 42 44 42 45 39 38 38 31 28 33 36 38 41 42 41 38 37 36 37 34 31 30 31 30 29 28 29 27 28 29 31 31 29 29 32
54 56 43 42 40 46 45 42 41 39 40 30 42 42 43 49 48 48 41 36 39 32 25 31 35 38 41 43 42 35 34 35 32 31 28 30 31 30 29 30 28 29 30 31 31 31 29 29 30
58 55 48 41 43 48 45 44 37 46 38 33 45 48 48 50 52 52 41 33 41 32 23 30 34 35 36 39 36 32 32 33 32 32 29 31 30 30 30 28 27 28 29 30 32 31 33 32 30
53 51 52 52 52 47 47 42 41 41 35 43 50 50 55 56 57 51 35 31 38 29 25 26 29 31 32 33 33 33 33 34 35 33 31 30 31 32 30 28 27 28 31 31 29 31 33 30 29
51 56 55 54 54 47 46 44 46 34 39 49 53 55 58 57 48 38 28 31 34 30 23 21 23 26 29 31 32 34 34 36 36 31 31 30 31 31 29 30 30 32 31 29 27 30 29 26 27
58 59 60 58 49 46 45 48 47 39 42 51 54 54 58 46 36 26 22 33 34 28 19 19 25 29 31 35 34 34 35 37 33 31 30 31 31 29 31 32 31 29 28 29 31 29 27 27 28
63 64 66 57 50 48 48 47 45 39 44 53 53 49 46 33 26 21 21 29 32 24 20 22 25 27 30 36 36 34 37 35 32 32 30 32 30 29 29 28 28 28 29 29 29 27 27 27 28
69 68 63 54 50 51 51 47 41 40 48 52 37 43 31 20 22 19 26 25 24 26 23 22 27 30 32 37 35 34 35 32 32 31 32 33 30 29 30 29 31 31 29 29 26 26 24 24 25
57 55 55 54 56 56 53 44 43 39 46 45 34 33 24 22 18 24 23 22 25 24 22 23 32 29 36 34 33 34 33 32 31 32 34 31 30 31 31 32 32 29 29 25 26 20 20 20 20
64 64 62 59 59 56 49 46 46 40 34 38 35 28 24 22 23 22 24 27 25 23 21 24 28 33 28 31 33 33 32 31 31 33 32 30 31 32 31 30 28 29 23 26 16 15 16 16 16
60 63 64 64 59 55 53 49 46 27 33 31 30 25 21 18 21 24 28 25 24 23 22 21 26 27 29 31 32 31 30 30 33 29 29 30 32 32 30 29 28 20 19 12 12 12 11 13 14
53 58 56 56 55 52 51 48 41 26 29 27 27 24 20 19 23 27 25 21 21 20 16 19 23 25 28 30 28 28 28 30 26 28 30 30 30 28 28 25 18 11 11 10 10 8 8 10 15
47 44 46 47 55 48 47 50 46 25 29 25 22 22 19 21 20 24 19 16 18 15 17 21 22 23 25 25 25 25 28 27 26 28 28 29 27 26 26 19 10 10 9 7 8 8 12 15 15
34 37 38 45 54 47 42 52 26 23 24 20 20 20 22 19 23 16 17 16 18 15 17 20 21 23 22 23 24 25 29 24 27 27 29 24 23 25 20 10 7 7 6 6 10 16 15 12 16
33 35 34 37 39 50 39 49 25 15 16 19 18 22 22 21 21 15 13 20 17 15 17 19 19 20 21 23 23 26 22 24 25 28 25 21 23 19 10 6 5 3 3 11 19 16 9 19 16
42 39 39 39 40 42 40 42 9 7 7 12 22 28 20 24 15 13 15 17 15 15 16 16 18 18 21 21 22 22 21 22 24 22 23 20 19 11 4 4 1 2 14 19 19 17 15 19 21
36 36 40 39 38 42 23 39 19 15 18 17 23 21 22 20 14 14 12 12 13 14 13 17 15 18 19 19 22 18 19 20 21 20 24 18 11 4 5 2 4 12 20 19 16 19 19 21 18
35 42 30 31 35 32 29 29 18 16 18 18 19 15 23 17 16 14 9 11 11 10 14 12 14 17 17 19 17 15 15 19 19 20 20 12 4 6 7 4 7 15 20 17 17 19 19 18 17
42 28 34 39 38 35 27 28 16 16 18 23 11 19 22 19 16 7 8 8 9 11 9 10 15 15 16 16 13 14 15 19 17 17 13 9 9 9 9 8 11 15 17 15 17 16 17 18 17
50 47 47 41 38 35 29 26 13 15 20 20 15 22 22 19 13 5 5 7 7 10 7 10 13 12 15 14 12 15 17 17 14 13 8 10 11 12 12 11 12 15 16 16 16 17 16 16 16
48 43 38 37 37 34 31 21 15 19 25 17 20 20 17 15 8 5 4 4 6 7 5 9 11 11 14 14 13 15 17 17 9 10 10 12 10 11 11 11 15 13 11 15 15 17 17 18 18
Wind_Direction
261 267 281 285 287 291 298 304 308 316 325 325 320 321 319 311 303 304 306 295 298 297 295 298 296 297 302 304 302 302 302 300 297 288 287 286 281 277 275 271 267 265 262 259 256 251 248 246 249
257 260 265 274 278 286 293 298 301 308 319 321 320 315 315 312 304 301 301 297 294 292 296 296 295 300 307 307 306 303 301 297 292 294 290 285 283 276 275 272 268 264 261 258 255 256 250 249 249
253 255 259 267 272 280 287 289 299 304 310 318 313 301 307 309 297 298 293 288 286 292 296 298 300 306 308 308 308 306 303 300 292 286 282 287 287 281 279 277 272 270 269 266 262 257 256 251 251
253 254 254 257 267 273 282 288 290 293 301 308 305 294 300 294 295 302 296 286 291 300 298 298 301 305 307 305 307 305 307 308 307 304 296 280 278 283 282 278 280 277 273 271 266 261 262 258 258
254 255 255 255 262 267 273 281 290 287 288 298 303 299 310 310 308 308 296 284 296 299 298 297 302 303 306 305 304 306 302 303 303 306 304 303 302 294 293 287 281 278 272 268 265 260 259 259 258
253 252 253 252 253 266 276 284 290 290 292 299 295 296 318 310 312 303 287 291 303 299 298 297 302 302 300 301 303 303 300 300 304 307 307 306 306 305 302 300 295 289 285 276 267 264 263 263 260
252 254 251 250 252 256 267 285 286 287 288 298 296 298 307 310 315 309 304 301 305 300 299 300 302 303 301 300 302 302 301 304 308 309 308 306 304 299 296 291 285 278 279 274 269 267 266 262 260
248 251 250 248 250 256 267 274 278 283 285 293 297 302 301 309 310 312 310 309 303 298 302 301 301 306 300 297 301 304 309 313 310 307 304 301 296 294 291 286 279 273 269 266 265 265 267 267 261
242 247 246 252 254 256 259 270 276 281 285 292 301 297 298 301 304 313 308 312 293 294 296 297 300 299 295 298 306 308 310 309 307 306 303 299 300 300 294 291 289 281 270 263 261 267 271 267 259
246 250 250 258 267 262 263 266 276 273 278 292 295 289 291 295 302 308 301 302 292 287 291 294 297 297 294 301 309 312 310 307 306 305 302 304 305 299 296 296 292 287 278 264 264 269 274 269 260
247 254 253 254 269 262 262 264 270 270 273 293 288 286 284 287 289 296 295 292 284 285 287 290 292 294 297 303 309 310 307 306 309 308 309 310 306 300 300 300 292 286 283 274 271 271 274 270 266
252 257 257 253 260 261 262 263 270 273 281 289 286 283 281 282 284 289 286 278 278 281 281 291 289 293 296 305 311 315 308 306 310 313 315 309 308 305 302 299 296 290 286 279 274 269 274 274 266
248 250 258 254 258 268 265 269 275 272 288 290 286 282 282 282 284 286 271 268 272 277 274 291 293 298 306 309 314 314 310 308 309 313 313 309 311 308 305 303 296 296 294 285 274 273 276 270 265
251 253 257 258 259 269 271 272 274 285 288 280 283 281 280 284 281 265 262 260 264 272 281 289 302 308 315 315 313 314 311 310 308 312 313 313 313 308 304 304 297 293 290 284 277 281 276 268 264
252 255 258 259 265 266 273 270 276 289 286 287 284 283 281 284 264 252 260 257 265 270 278 296 304 306 307 316 313 314 312 310 311 315 315 315 313 310 308 305 302 297 288 283 282 280 272 266 261
252 255 257 262 264 265 269 269 276 287 285 288 291 288 287 277 259 253 254 262 268 269 277 291 300 294 304 315 312 311 310 309 316 317 316 318 314 313 314 309 304 299 296 287 281 272 269 265 262
252 254 258 262 259 264 268 277 284 286 286 286 286 281 288 273 256 251 261 279 272 272 282 287 298 310 305 312 308 310 309 314 316 316 318 319 314 312 311 307 301 302 294 286 275 271 268 263 257
259 258 257 260 263 265 271 278 281 282 282 279 273 277 269 258 257 262 272 275 266 279 289 301 295 298 307 307 307 306 312 314 316 317 320 318 312 309 308 306 301 298 293 282 277 263 263 255 253
253 256 257 261 262 265 271 272 273 279 267 270 263 267 258 270 267 268 270 264 281 292 294 291 297 298 303 305 306 310 312 314 319 320 319 311 311 312 307 309 303 297 289 278 265 262 257 244 243
253 255 255 259 262 268 269 264 270 254 257 263 253 261 257 276 265 270 264 273 288 291 292 292 295 300 302 300 307 309 312 320 323 320 312 311 312 311 310 305 300 296 285 270 261 254 240 236 218
254 256 258 260 263 263 264 262 248 244 250 251 246 253 259 283 276 260 263 278 301 291 287 292 296 301 297 299 306 310 319 322 324 317 313 313 313 312 312 309 306 297 283 271 251 221 215 183 180
250 253 249 252 258 259 265 257 243 235 242 244 240 243 260 268 250 256 266 305 297 299 297 295 298 300 300 306 308 317 321 321 319 313 316 315 314 314 311 311 308 295 279 258 209 169 163 162 165
260 256 249 247 252 256 256 250 234 227 233 241 240 243 265 259 248 254 276 305 293 297 297 294 299 301 308 310 315 322 323 319 317 319 320 319 317 314 314 309 304 293 277 219 177 163 178 150 161
247 241 235 239 246 250 234 241 240 213 236 241 235 247 258 241 243 252 281 293 303 293 301 295 303 305 313 315 321 324 322 319 320 323 325 328 322 319 319 317 305 287 252 164 153 150 147 157 150
228 221 223 227 232 235 235 238 173 182 261 243 240 244 240 236 248 266 278 296 304 296 304 300 303 311 320 324 327 327 322 325 326 334 334 327 329 326 331 347 309 101 132 136 151 147 148 142 143
234 233 224 220 225 232 229 236 202 251 259 246 237 245 226 232 253 264 287 315 303 304 307 304 305 321 327 332 332 324 329 334 337 340 337 332 329 330 9 69 112 137 134 138 146 144 145 148 146
220 222 216 218 218 227 225 236 221 238 262 259 246 236 228 235 256 268 310 311 310 312 311 302 322 330 335 337 334 339 341 346 346 349 340 335 15 32 46 98 130 146 146 143 143 145 150 153 149
216 218 216 217 223 233 224 233 231 242 247 255 228 208 224 243 254 281 297 308 312 316 304 318 333 342 340 341 341 346 347 351 353 352 354 51 62 56 61 104 132 144 145 140 143 147 148 149 139
215 208 211 217 226 234 230 229 241 242 228 232 219 228 231 241 246 280 288 306 310 315 302 330 345 352 359 357 343 351 343 347 355 0 36 50 62 66 68 100 126 142 146 146 146 148 147 149 152
215 221 227 231 234 240 250 247 254 214 220 212 227 225 226 226 251 258 278 314 314 323 308 337 352 351 357 350 341 352 345 348 12 12 46 49 60 71 78 102 118 131 139 151 155 151 152 150 147
Height
5897 5897 5898 5899 5902 5900 5900 5899 5898 5896 5896 5894 5894 5893 5893 5892 5890 5889 5887 5883 5881 5878 5873 5870 5867 5865 5863 5861 5858 5856 5854 5852 5850 5848 5846 5843 5841 5840 5840 5841 5842 5842 5842 5842 5842 5843 5846 5847 5849
5894 5894 5896 5896 5898 5897 5896 5895 5895 5894 5894 5893 5891 5891 5890 5889 5887 5884 5882 5878 5877 5873 5869 5865 5861 5861 5858 5855 5853 5850 5848 5846 5844 5841 5840 5838 5836 5835 5834 5833 5833 5834 5834 5836 5836 5835 5838 5840 5842
5890 5892 5894 5894 5894 5894 5893 5891 5892 5890 5888 5889 5889 5889 5887 5885 5883 5881 5878 5875 5873 5869 5865 5858 5856 5856 5854 5849 5845 5842 5840 5838 5838 5836 5834 5832 5830 5829 5829 5828 5828 5828 5828 5828 5829 5829 5830 5832 5836
5887 5888 5890 5891 5890 5890 5889 5886 5889 5888 5885 5884 5884 5885 5886 5883 5878 5877 5874 5872 5869 5865 5860 5854 5852 5851 5849 5845 5841 5837 5835 5832 5830 5828 5827 5826 5824 5823 5822 5822 5821 5822 5822 5823 5823 5823 5822 5824 5828
5881 5883 5885 5888 5886 5885 5885 5882 5882 5883 5883 5883 5881 5879 5879 5876 5874 5872 5870 5868 5866 5861 5855 5850 5848 5845 5843 5840 5837 5834 5831 5828 5825 5821 5819 5817 5815 5814 5814 5813 5814 5814 5815 5815 5815 5817 5817 5816 5819
5877 5877 5880 5883 5884 5882 5880 5878 5877 5877 5878 5877 5877 5874 5875 5871 5868 5867 5866 5863 5860 5856 5850 5846 5843 5840 5839 5836 5833 5830 5827 5824 5820 5816 5813 5811 5808 5807 5805 5805 5804 5805 5805 5806 5807 5808 5808 5807 5808
5871 5870 5873 5878 5881 5880 5878 5873 5871 5872 5871 5870 5870 5869 5870 5865 5863 5860 5859 5857 5854 5850 5845 5842 5838 5835 5833 5830 5827 5824 5821 5818 5815 5811 5807 5804 5802 5800 5798 5797 5796 5796 5796 5796 5797 5798 5798 5798 5798
5864 5863 5867 5871 5875 5876 5876 5871 5868 5867 5865 5865 5865 5864 5861 5860 5858 5857 5855 5853 5849 5845 5841 5837 5832 5831 5827 5824 5821 5819 5815 5811 5808 5804 5800 5797 5795 5793 5790 5788 5787 5787 5787 5787 5787 5787 5787 5789 5789
5856 5854 5860 5866 5867 5869 5867 5865 5863 5862 5860 5859 5861 5858 5853 5853 5852 5850 5849 5848 5844 5840 5837 5832 5829 5826 5822 5820 5817 5814 5810 5805 5801 5797 5793 5789 5786 5784 5782 5779 5778 5777 5777 5778 5778 5778 5779 5780 5780
5846 5847 5855 5861 5861 5861 5858 5858 5856 5856 5854 5857 5854 5853 5848 5846 5846 5845 5844 5842 5839 5836 5833 5828 5824 5821 5817 5814 5811 5808 5804 5799 5795 5790 5786 5782 5779 5776 5774 5772 5770 5768 5768 5768 5769 5769 5770 5770 5771
5838 5836 5850 5852 5854 5849 5850 5852 5848 5849 5850 5854 5849 5848 5846 5840 5839 5839 5838 5836 5833 5830 5827 5823 5819 5816 5812 5808 5806 5803 5798 5793 5789 5784 5779 5775 5772 5769 5767 5765 5763 5760 5759 5758 5759 5759 5760 5761 5761
5827 5831 5838 5845 5843 5838 5843 5842 5845 5839 5845 5847 5841 5837 5835 5834 5832 5832 5831 5830 5827 5824 5822 5818 5814 5811 5807 5803 5801 5796 5791 5786 5783 5777 5772 5769 5766 5762 5760 5757 5755 5753 5752 5750 5749 5749 5750 5751 5752
5814 5823 5828 5831 5831 5831 5832 5834 5834 5835 5841 5836 5830 5828 5825 5823 5823 5824 5822 5823 5821 5818 5815 5812 5809 5806 5802 5798 5794 5789 5784 5780 5776 5770 5767 5763 5758 5755 5751 5749 5746 5745 5743 5741 5742 5742 5742 5741 5742
5808 5809 5813 5815 5821 5825 5823 5826 5818 5833 5832 5824 5821 5818 5813 5812 5812 5813 5816 5817 5814 5812 5809 5806 5804 5801 5798 5792 5787 5782 5778 5773 5769 5764 5761 5757 5752 5748 5744 5741 5738 5737 5735 5733 5733 5733 5732 5732 5733
5797 5797 5799 5802 5814 5815 5818 5813 5815 5823 5820 5813 5810 5808 5803 5804 5802 5806 5808 5809 5809 5806 5802 5800 5798 5795 5792 5787 5781 5776 5771 5767 5762 5758 5754 5750 5746 5742 5738 5734 5731 5728 5726 5725 5725 5724 5724 5725 5726
5786 5788 5787 5798 5806 5807 5809 5803 5810 5817 5809 5804 5802 5798 5797 5797 5799 5801 5803 5804 5803 5799 5797 5794 5792 5788 5785 5781 5775 5770 5765 5761 5756 5752 5748 5743 5739 5735 5731 5728 5725 5722 5719 5717 5717 5716 5716 5717 5718
5772 5774 5781 5793 5794 5799 5797 5795 5804 5806 5800 5795 5796 5793 5795 5796 5797 5797 5798 5799 5797 5795 5791 5789 5785 5782 5779 5775 5770 5764 5760 5755 5750 5746 5741 5736 5733 5729 5725 5721 5718 5714 5711 5709 5708 5708 5709 5710 5710
5767 5771 5775 5778 5786 5790 5788 5789 5791 5798 5791 5789 5791 5792 5793 5794 5794 5793 5794 5793 5792 5789 5786 5784 5778 5776 5773 5769 5763 5759 5754 5749 5745 5739 5735 5730 5727 5722 5718 5714 5710 5706 5704 5702 5701 5702 5702 5703 5702
5759 5759 5763 5769 5775 5780 5782 5780 5783 5787 5784 5784 5786 5789 5789 5790 5790 5790 5789 5788 5786 5783 5780 5778 5774 5770 5767 5763 5758 5753 5748 5744 5738 5733 5728 5724 5720 5715 5711 5707 5703 5700 5697 5695 5694 5695 5696 5696 5697
5748 5750 5754 5761 5767 5770 5772 5770 5772 5777 5777 5778 5781 5784 5785 5785 5785 5784 5783 5783 5781 5777 5774 5771 5768 5764 5761 5757 5752 5748 5743 5737 5732 5727 5723 5719 5714 5710 5705 5700 5697 5694 5692 5690 5691 5691 5692 5692 5694
5737 5739 5749 5755 5759 5759 5758 5758 5759 5769 5770 5772 5776 5779 5780 5780 5781 5779 5779 5778 5774 5771 5768 5766 5762 5759 5756 5752 5748 5743 5737 5732 5727 5723 5719 5713 5708 5703 5699 5695 5692 5690 5689 5688 5688 5689 5690 5691 5694
5726 5734 5737 5742 5744 5748 5749 5740 5747 5762 5764 5767 5771 5773 5774 5776 5775 5775 5775 5771 5769 5765 5763 5760 5757 5754 5751 5747 5742 5737 5732 5728 5723 5719 5714 5708 5703 5698 5695 5691 5689 5688 5686 5686 5687 5689 5689 5692 5695
5725 5723 5728 5732 5731 5737 5742 5736 5750 5755 5758 5764 5766 5767 5769 5770 5769 5770 5770 5766 5764 5760 5758 5755 5753 5750 5746 5742 5737 5732 5728 5723 5719 5714 5709 5703 5698 5694 5691 5689 5687 5685 5684 5685 5687 5689 5692 5695 5697
5715 5713 5716 5721 5727 5721 5736 5733 5748 5753 5755 5756 5760 5762 5764 5765 5765 5766 5764 5762 5758 5756 5753 5751 5748 5745 5742 5737 5732 5729 5723 5720 5715 5710 5704 5699 5695 5691 5689 5687 5685 5684 5683 5683 5688 5691 5693 5697 5699
5700 5702 5706 5711 5712 5719 5728 5731 5746 5747 5749 5752 5754 5756 5759 5760 5762 5762 5760 5757 5753 5752 5749 5747 5744 5742 5737 5732 5729 5725 5722 5717 5712 5707 5702 5696 5693 5691 5689 5686 5685 5684 5684 5687 5691 5694 5697 5699 5702
5698 5701 5701 5703 5709 5714 5729 5721 5740 5743 5742 5748 5749 5753 5755 5756 5757 5758 5755 5752 5750 5748 5745 5743 5741 5738 5733 5730 5726 5723 5719 5714 5710 5705 5699 5694 5693 5692 5689 5687 5686 5687 5688 5692 5694 5696 5699 5703 5706
5690 5685 5700 5703 5705 5711 5719 5723 5734 5738 5738 5742 5746 5750 5751 5753 5754 5754 5750 5748 5746 5745 5742 5741 5738 5734 5730 5727 5724 5721 5717 5713 5709 5704 5699 5695 5693 5692 5690 5688 5688 5690 5692 5696 5698 5700 5702 5706 5708
5678 5692 5692 5693 5698 5703 5714 5717 5728 5734 5736 5737 5743 5746 5747 5749 5752 5748 5746 5745 5743 5742 5740 5739 5736 5732 5729 5726 5723 5720 5716 5713 5708 5705 5701 5697 5695 5693 5692 5691 5691 5694 5696 5699 5701 5704 5706 5709 5712
5668 5673 5676 5687 5693 5698 5707 5715 5725 5728 5730 5734 5740 5742 5744 5748 5748 5744 5743 5742 5741 5740 5738 5736 5733 5730 5728 5725 5721 5719 5715 5712 5708 5706 5703 5700 5697 5696 5695 5695 5696 5698 5700 5703 5705 5707 5710 5712 5714
5664 5674 5681 5686 5691 5697 5703 5714 5720 5721 5725 5731 5736 5739 5742 5745 5743 5742 5740 5739 5739 5737 5735 5734 5732 5730 5727 5724 5720 5719 5714 5711 5708 5707 5704 5702 5700 5699 5699 5699 5700 5703 5705 5706 5708 5711 5713 5716 5718